Volver al catálogo

STARLINK-4095

ActivoComunicacionesVLEO
NORAD 53170·PAYLOAD·🇺🇸 United States

Lanzado Jul 17, 2022 desde Cape Canaveral Space Force Station

Loading…

Próximos Pases (próximas 24 horas)

TLE

ActualizadoSource: CelesTrak SupGP

Época: Sep 15, 2026, 01:48 UTC

1 53170C 22083AQ  26258.07548611  .00640380  00000+0  30320-1 0  2583
2 53170  53.1597  28.0145 0001324  86.5640 271.4802 15.18506724    11

Sigue STARLINK-4095 en tiempo real con AllMySat

Download on the App Store